| time (UTC) | temp F | wind direction | speed MPH | gust MPH | rain 1hr in | rain 24hr in | rain mn in | humidity % | barometer mb |
| 20260902181545 | 87 | 68 | 0.0 | 3.0 | 0.00 | 0.00 | 0.00 | 77 | 1008.9 |
| 20260902180025 | 85 | 30 | 0.0 | 1.0 | 0.00 | 0.00 | 0.00 | 79 | 1009.1 |
| 20260902174522 | 84 | 30 | 0.0 | 5.0 | 0.00 | 0.31 | 0.00 | 77 | 1009.6 |
| 20260902173005 | 84 | 30 | 2.0 | 4.0 | 0.00 | 0.31 | 0.00 | 78 | 1010.1 |
| 20260902171504 | 83 | 30 | 2.0 | 5.0 | 0.00 | 0.31 | 0.00 | 78 | 1010.5 |
| 20260902170052 | 85 | 299 | 0.0 | 3.0 | 0.00 | 0.31 | 0.00 | 79 | 1010.7 |
| 20260902164603 | 85 | 299 | 0.0 | 8.0 | 0.00 | 0.31 | 0.00 | 78 | 1010.8 |
| 20260902163051 | 85 | 176 | 0.0 | 3.0 | 0.00 | 0.31 | 0.00 | 79 | 1010.9 |
| 20260902161550 | 85 | 176 | 1.0 | 4.0 | 0.00 | 0.31 | 0.00 | 78 | 1010.9 |
| 20260902160054 | 86 | 191 | 0.0 | 3.0 | 0.00 | 0.31 | 0.00 | 77 | 1010.9 |
| 20260902154553 | 85 | 203 | 0.0 | 3.0 | 0.00 | 0.31 | 0.00 | 77 | 1010.8 |
| 20260902153044 | 84 | 203 | 0.0 | 3.0 | 0.00 | 0.31 | 0.00 | 80 | 1010.7 |
| 20260902151541 | 83 | 236 | 0.0 | 4.0 | 0.00 | 0.31 | 0.00 | 82 | 1010.6 |
| 20260902150020 | 82 | 235 | 2.0 | 6.0 | 0.00 | 0.31 | 0.00 | 80 | 1010.6 |
| 20260902144516 | 81 | 233 | 0.0 | 8.0 | 0.00 | 0.31 | 0.00 | 84 | 1010.8 |
| 20260902143056 | 80 | 230 | 0.0 | 3.0 | 0.00 | 0.31 | 0.00 | 86 | 1010.8 |
| 20260902141556 | 80 | 235 | 0.0 | 5.0 | 0.00 | 0.31 | 0.00 | 88 | 1010.7 |
| 20260902140037 | 79 | 186 | 0.0 | 4.0 | 0.00 | 0.31 | 0.00 | 90 | 1010.8 |
| 20260902134531 | 78 | 168 | 0.0 | 2.0 | 0.00 | 0.31 | 0.00 | 91 | 1010.8 |
| 20260902133016 | 77 | 166 | 0.0 | 0.0 | 0.00 | 0.31 | 0.00 | 92 | 1010.6 |
| 20260902131515 | 76 | 160 | 0.0 | 0.0 | 0.00 | 0.31 | 0.00 | 92 | 1010.8 |
| 20260902130027 | 76 | 160 | 0.0 | 0.0 | 0.00 | 0.31 | 0.00 | 92 | 1010.7 |
| 20260902124513 | 75 | 155 | 0.0 | 0.0 | 0.00 | 0.31 | 0.00 | 93 | 1010.7 |
| 20260902123025 | 75 | 154 | 0.0 | 0.0 | 0.00 | 0.31 | 0.00 | 92 | 1010.4 |
| 20260902121511 | 75 | 154 | 0.0 | 0.0 | 0.00 | 0.31 | 0.00 | 92 | 1010.5 |
| 20260902120010 | 74 | 154 | 0.0 | 0.0 | 0.00 | 0.31 | 0.00 | 92 | 1010.3 |
| 20260902114513 | 74 | 154 | 0.0 | 0.0 | 0.00 | 0.31 | 0.00 | 92 | 1010.1 |
| 20260902113058 | 74 | 155 | 0.0 | 0.0 | 0.00 | 0.31 | 0.00 | 92 | 1010.6 |
| 20260902111557 | 74 | 155 | 0.0 | 0.0 | 0.00 | 0.31 | 0.00 | 92 | 1010.7 |
| 20260902110104 | 74 | 156 | 0.0 | 0.0 | 0.00 | 0.31 | 0.00 | 92 | 1010.3 |
| 20260902104559 | 74 | 156 | 0.0 | 0.0 | 0.00 | 0.31 | 0.00 | 91 | 1010.2 |
| 20260902103104 | 74 | 155 | 0.0 | 0.0 | 0.00 | 0.31 | 0.00 | 91 | 1010.0 |
| 20260902101554 | 75 | 154 | 0.0 | 0.0 | 0.00 | 0.31 | 0.00 | 91 | 1009.9 |
| 20260902100053 | 75 | 163 | 0.0 | 0.0 | 0.00 | 0.31 | 0.00 | 91 | 1009.8 |
| 20260902094552 | 75 | 163 | 0.0 | 0.0 | 0.00 | 0.31 | 0.00 | 90 | 1009.7 |
| 20260902093038 | 75 | 163 | 0.0 | 0.0 | 0.00 | 0.31 | 0.00 | 90 | 1009.9 |
| 20260902091534 | 75 | 164 | 0.0 | 0.0 | 0.00 | 0.31 | 0.00 | 90 | 1010.1 |
| 20260902090015 | 76 | 164 | 0.0 | 0.0 | 0.00 | 0.31 | 0.00 | 89 | 1010.1 |
| 20260902084515 | 76 | 164 | 0.0 | 0.0 | 0.00 | 0.31 | 0.00 | 88 | 1010.0 |
| 20260902083056 | 75 | 164 | 0.0 | 0.0 | 0.00 | 0.31 | 0.00 | 89 | 1010.0 |
| 20260902081559 | 75 | 164 | 0.0 | 0.0 | 0.00 | 0.31 | 0.00 | 90 | 1009.9 |
| 20260902080048 | 75 | 116 | 0.0 | 0.0 | 0.00 | 0.31 | 0.00 | 91 | 1010.0 |
| 20260902074536 | 75 | 91 | 0.0 | 0.0 | 0.00 | 0.31 | 0.00 | 91 | 1010.0 |
| 20260902073028 | 75 | 92 | 0.0 | 0.0 | 0.00 | 0.31 | 0.00 | 91 | 1009.9 |
| 20260902071518 | 75 | 90 | 0.0 | 0.0 | 0.00 | 0.31 | 0.00 | 91 | 1010.0 |
| 20260902070059 | 75 | 90 | 0.0 | 0.0 | 0.00 | 0.31 | 0.00 | 92 | 1010.1 |
| 20260902064557 | 75 | 89 | 0.0 | 0.0 | 0.00 | 0.31 | 0.00 | 92 | 1010.2 |
| 20260902063039 | 75 | 89 | 0.0 | 0.0 | 0.00 | 0.31 | 0.00 | 92 | 1010.2 |
| 20260902061540 | 75 | 88 | 0.0 | 0.0 | 0.00 | 0.31 | 0.00 | 92 | 1010.4 |
| 20260902060020 | 75 | 88 | 0.0 | 0.0 | 0.00 | 0.31 | 0.00 | 92 | 1010.6 |
| 20260902054529 | 75 | 88 | 0.0 | 0.0 | 0.00 | 0.31 | 0.00 | 92 | 1010.8 |
| 20260902053004 | 75 | 88 | 0.0 | 0.0 | 0.00 | 0.31 | 0.00 | 92 | 1010.6 |
| 20260902051506 | 75 | 88 | 0.0 | 0.0 | 0.00 | 0.31 | 0.00 | 92 | 1010.7 |
| 20260902050047 | 75 | 88 | 0.0 | 0.0 | 0.00 | 0.31 | 0.00 | 92 | 1010.6 |
| 20260902044544 | 75 | 87 | 0.0 | 0.0 | 0.00 | 0.31 | 0.00 | 92 | 1010.8 |
| 20260902043027 | 75 | 87 | 0.0 | 0.0 | 0.00 | 0.31 | 0.00 | 92 | 1010.7 |
| 20260902041524 | 75 | 84 | 0.0 | 0.0 | 0.00 | 0.31 | 0.00 | 92 | 1010.6 |
| 20260902040006 | 76 | 84 | 0.0 | 0.0 | 0.00 | 0.31 | 0.00 | 92 | 1010.4 |
| 20260902034503 | 76 | 84 | 0.0 | 0.0 | 0.00 | 0.31 | 0.31 | 92 | 1010.5 |
| 20260902033052 | 76 | 84 | 0.0 | 0.0 | 0.00 | 0.31 | 0.31 | 92 | 1010.5 |
| 20260902031546 | 76 | 84 | 0.0 | 0.0 | 0.00 | 0.31 | 0.31 | 91 | 1010.5 |
| 20260902030028 | 77 | 84 | 0.0 | 0.0 | 0.00 | 0.31 | 0.31 | 91 | 1010.4 |
| 20260902024526 | 77 | 83 | 0.0 | 0.0 | 0.00 | 0.31 | 0.31 | 91 | 1010.4 |
| 20260902023022 | 77 | 83 | 0.0 | 0.0 | 0.00 | 0.31 | 0.31 | 91 | 1010.4 |
| 20260902021524 | 78 | 83 | 0.0 | 0.0 | 0.00 | 0.31 | 0.31 | 91 | 1010.3 |
| 20260902020101 | 78 | 79 | 0.0 | 0.0 | 0.00 | 0.31 | 0.31 | 90 | 1010.3 |
| 20260902014557 | 79 | 79 | 0.0 | 0.0 | 0.00 | 0.31 | 0.31 | 89 | 1010.2 |
| 20260902013057 | 79 | 79 | 0.0 | 0.0 | 0.00 | 0.31 | 0.31 | 88 | 1010.1 |
| 20260902011556 | 80 | 79 | 0.0 | 0.0 | 0.00 | 0.31 | 0.31 | 87 | 1010.0 |
| 20260902010055 | 80 | 79 | 0.0 | 0.0 | 0.00 | 0.31 | 0.31 | 86 | 1009.8 |
| 20260902004556 | 81 | 79 | 0.0 | 0.0 | 0.00 | 0.31 | 0.31 | 85 | 1009.8 |
| 20260902003058 | 82 | 79 | 0.0 | 0.0 | 0.00 | 0.31 | 0.31 | 85 | 1009.7 |
| 20260902001554 | 83 | 79 | 0.0 | 0.0 | 0.00 | 0.31 | 0.31 | 85 | 1009.7 |
| 20260902000036 | 84 | 79 | 0.0 | 0.0 | 0.00 | 0.31 | 0.31 | 83 | 1009.8 |
| 20260901234535 | 85 | 79 | 0.0 | 0.0 | 0.00 | 0.31 | 0.31 | 81 | 1009.9 |
| 20260901233017 | 86 | 79 | 0.0 | 0.0 | 0.00 | 0.31 | 0.31 | 81 | 1009.9 |
| 20260901231517 | 86 | 79 | 0.0 | 0.0 | 0.00 | 0.31 | 0.31 | 79 | 1010.0 |
| 20260901230114 | 86 | 79 | 0.0 | 0.0 | 0.00 | 0.31 | 0.31 | 78 | 1010.1 |
| 20260901224601 | 87 | 79 | 0.0 | 0.0 | 0.00 | 0.32 | 0.31 | 77 | 1010.1 |
| 20260901223044 | 89 | 79 | 0.0 | 0.0 | 0.00 | 0.32 | 0.31 | 75 | 1010.1 |
| 20260901221543 | 90 | 79 | 0.0 | 1.0 | 0.00 | 0.32 | 0.31 | 73 | 1010.0 |
| 20260901220050 | 89 | 79 | 0.0 | 1.0 | 0.00 | 0.32 | 0.31 | 72 | 1009.9 |
| 20260901214522 | 89 | 79 | 0.0 | 1.0 | 0.00 | 0.32 | 0.31 | 70 | 1010.0 |
| 20260901213003 | 89 | 79 | 0.0 | 3.0 | 0.00 | 0.32 | 0.31 | 71 | 1010.0 |
| 20260901211501 | 89 | 79 | 0.0 | 2.0 | 0.00 | 0.32 | 0.31 | 73 | 1010.1 |
| 20260901210104 | 88 | 78 | 0.0 | 2.0 | 0.00 | 0.32 | 0.31 | 73 | 1010.1 |
| 20260901204540 | 87 | 78 | 0.0 | 2.0 | 0.00 | 0.32 | 0.31 | 77 | 1010.2 |
| 20260901203052 | 86 | 79 | 0.0 | 2.0 | 0.00 | 0.32 | 0.31 | 79 | 1010.1 |
| 20260901201516 | 85 | 78 | 1.0 | 4.0 | 0.00 | 0.32 | 0.31 | 81 | 1010.3 |
| 20260901200017 | 84 | 78 | 1.0 | 3.0 | 0.00 | 0.32 | 0.31 | 83 | 1010.3 |
| 20260901194554 | 83 | 77 | 2.0 | 5.0 | 0.00 | 0.35 | 0.31 | 83 | 1010.3 |
| 20260901193058 | 82 | 99 | 0.0 | 3.0 | 0.00 | 0.35 | 0.31 | 84 | 1010.5 |
| 20260901191542 | 82 | 29 | 0.0 | 7.0 | 0.00 | 0.35 | 0.31 | 84 | 1010.6 |
| 20260901190040 | 82 | 57 | 1.0 | 7.0 | 0.00 | 0.35 | 0.31 | 83 | 1010.7 |
| 20260901184540 | 81 | 38 | 0.0 | 5.0 | 0.00 | 0.37 | 0.31 | 83 | 1010.7 |
| 20260901183046 | 82 | 11 | 2.0 | 7.0 | 0.00 | 0.37 | 0.31 | 83 | 1010.8 |